This demonstration page uses our WeatherBlox Daily Observations layout. Learn more.

Left ArrowRight Arrow

Hourly Observations for December 27, 2015

Temp ( °F °C ) Dew Point ( °F °C ) Humidity (%) Winds ( mph kmh ) Pressure ( in mb ) Visibility ( mi km ) Precip ( " mm )
12:51 am 00:51 Partly Cloudy 34 1.1 17 -8.3 50 50 NW 8 13 30.01 1016 10 16 N/A
1:51 am 01:51 Mostly Clear 32 undefined 17 -8.3 54 54 WNW 9 15 30.03 1017 10 16 N/A
2:51 am 02:51 Clear 28 -2.2 18 -7.8 66 66 NNW 7 11 30.08 1019 10 16 N/A
3:51 am 03:51 Clear 29 -1.7 18 -7.8 63 63 NW 8 13 30.08 1019 10 16 N/A
4:51 am 04:51 Partly Cloudy 31 -0.6 18 -7.8 59 59 NNW 8 13 30.08 1019 10 16 N/A
5:51 am 05:51 Clear 27 -2.8 18 -7.8 69 69 SSE 3 6 30.13 1020 10 16 N/A
6:51 am 06:51 Clear 26 -3.3 18 -7.8 71 71 N N/A 30.15 1021 10 16 N/A
7:51 am 07:51 Sunny 27 -2.8 18 -7.8 69 69 SSE 6 9 30.16 1021 10 16 N/A
8:51 am 08:51 Sunny 34 1.1 16 -8.9 48 48 N N/A 30.18 1022 10 16 N/A
9:51 am 09:51 Sunny 36 2.2 16 -8.9 44 44 W 6 9 30.19 1022 10 16 N/A
10:51 am 10:51 Sunny 39 3.9 18 -7.8 43 43 VRB 6 9 30.17 1022 10 16 N/A
11:51 am 11:51 Sunny 42 5.6 18 -7.8 38 38 VRB 3 6 30.14 1021 10 16 N/A
12:51 pm 12:51 Sunny 46 7.8 19 -7.2 34 34 WNW 7 11 30.10 1019 10 16 N/A
1:51 pm 13:51 Sunny 48 8.9 19 -7.2 32 32 WNW 9 15 30.07 1018 10 16 N/A
2:51 pm 14:51 Sunny 49 9.4 19 -7.2 31 31 WSW 6 9 30.06 1018 10 16 N/A
3:51 pm 15:51 Sunny 49 9.4 19 -7.2 31 31 S 6 9 30.06 1018 10 16 N/A
4:51 pm 16:51 Mostly Sunny 48 8.9 20 -6.7 33 33 SSE 7 11 30.06 1018 10 16 N/A
5:51 pm 17:51 Cloudy 47 8.3 20 -6.7 34 34 S 3 6 30.09 1019 10 16 N/A
6:51 pm 18:51 Cloudy 44 6.7 24 -4.4 45 45 S 6 9 30.11 1020 10 16 N/A
7:51 pm 19:51 Clear 41 5 25 -3.9 53 53 SE 6 9 30.12 1020 10 16 N/A
8:51 pm 20:51 Hazy 40 4.4 26 -3.3 58 58 SSE 7 11 30.11 1020 4 6 N/A
9:51 pm 21:51 Clear 38 3.3 26 -3.3 62 62 ESE 7 11 30.11 1020 10 16 N/A
10:51 pm 22:51 Clear 36 2.2 26 -3.3 67 67 E 6 9 30.09 1019 10 16 N/A
11:51 pm 23:51 Clear 36 2.2 26 -3.3 67 67 E 8 13 30.06 1018 10 16 N/A

Powered by AerisWeather